Location: Unspecified
(0.0000°N, 0.0000°E)
Time: 10:43:09
(UTC+00:00)

Kosmos-2233 - Pass Details

Date: 27 February 2024
Orbit: 950 x 1007 km, 82.9° (Epoch: 25 April)

Event Time Altitude Azimuth Distance (km) Brightness Sun altitude
Rises 19:20:54 0° 190° (S) 3,627 8.7 -16.9°
Reaches altitude 10° 19:23:24 10° 192° (SSW) 2,684 8.1 -17.5°
Maximum altitude 19:29:28 64° 273° (W) 1,055 5.9 -19.0°
Drops below altitude 10° 19:35:35 10° 354° (N) 2,707 7.8 -20.5°
Sets 19:38:07 0° 357° (N) 3,660 8.5 -21.1°
